Time,TemperatureF,DewpointF,PressureIn,WindDirection,WindDirectionDegrees,WindSpeedMPH,WindSpeedGustMPH,Humidity,HourlyPrecipIn,Conditions,Clouds,dailyrainin,SoftwareType,DateUTC
2013-10-03 00:01:00,62.5,60.1,29.95,North,355,0.0,0.0,92,0.00,,,0.00,Wunderground PWS Mod,2013-10-03 04:01:00,
2013-10-03 00:02:00,62.5,60.1,29.95,North,355,0.0,0.0,92,0.00,,,0.00,Wunderground PWS Mod,2013-10-03 04:02:00,
2013-10-03 00:03:00,62.5,60.1,29.95,North,355,0.0,0.0,92,0.00,,,0.00,Wunderground PWS Mod,2013-10-03 04:03:00,
2013-10-03 00:05:00,62.5,60.1,29.96,North,355,0.0,0.0,92,0.00,,,0.00,Wunderground PWS Mod,2013-10-03 04:05:00,
2013-10-03 00:06:00,62.5,60.1,29.96,North,355,0.0,0.0,92,0.00,,,0.00,Wunderground PWS Mod,2013-10-03 04:06:00,
2013-10-03 00:07:00,62.1,59.4,29.96,N/A,-737280,0.0,0.0,91,0.00,,,0.00,Wunderground PWS Mod,2013-10-03 04:07:00,
2013-10-03 00:08:00,62.5,60.1,29.96,North,355,0.0,0.0,92,0.00,,,0.00,Wunderground PWS Mod,2013-10-03 04:08:00,
2013-10-03 00:13:00,62.5,60.1,29.96,North,355,0.0,0.0,92,0.00,,,0.00,Wunderground PWS Mod,2013-10-03 04:13:00,
2013-10-03 00:18:00,62.3,59.6,29.96,North,355,0.0,0.0,91,0.00,,,0.00,Wunderground PWS Mod,2013-10-03 04:18:00,
2013-10-03 00:24:00,62.2,59.5,29.96,North,355,0.0,0.0,91,0.00,,,0.00,Wunderground PWS Mod,2013-10-03 04:24:00,
2013-10-03 00:30:00,62.1,59.4,29.96,North,355,0.0,0.0,91,0.00,,,0.00,Wunderground PWS Mod,2013-10-03 04:30:00,
2013-10-03 00:35:00,62.0,59.3,29.96,North,355,0.0,0.0,91,0.00,,,0.00,Wunderground PWS Mod,2013-10-03 04:35:00,
2013-10-03 00:40:00,62.0,59.3,29.96,North,355,0.0,0.0,91,0.00,,,0.00,Wunderground PWS Mod,2013-10-03 04:40:00,
2013-10-03 00:46:00,61.9,59.2,29.96,North,355,0.0,0.0,91,0.00,,,0.00,Wunderground PWS Mod,2013-10-03 04:46:00,
2013-10-03 00:51:00,61.8,58.8,29.96,North,355,0.0,0.0,90,0.00,,,0.00,Wunderground PWS Mod,2013-10-03 04:51:00,
2013-10-03 00:56:00,61.7,59.0,29.97,North,355,0.0,0.0,91,0.00,,,0.00,Wunderground PWS Mod,2013-10-03 04:56:00,
2013-10-03 01:01:00,61.5,58.8,29.97,North,355,0.0,0.0,91,0.00,,,0.00,Wunderground PWS Mod,2013-10-03 05:01:00,
2013-10-03 01:06:00,61.4,58.7,29.97,North,355,0.0,0.0,91,0.00,,,0.00,Wunderground PWS Mod,2013-10-03 05:06:00,
2013-10-03 01:12:00,61.3,58.7,29.97,North,355,0.0,0.0,91,0.00,,,0.00,Wunderground PWS Mod,2013-10-03 05:12:00,
2013-10-03 01:17:00,61.2,58.6,29.97,North,355,0.0,0.0,91,0.00,,,0.00,Wunderground PWS Mod,2013-10-03 05:17:00,
2013-10-03 01:22:00,61.0,58.4,29.97,North,355,0.0,0.0,91,0.00,,,0.00,Wunderground PWS Mod,2013-10-03 05:22:00,
2013-10-03 01:27:00,60.9,58.3,29.98,North,355,0.0,0.0,91,0.00,,,0.00,Wunderground PWS Mod,2013-10-03 05:27:00,
2013-10-03 01:32:00,60.9,58.6,29.98,North,355,0.0,0.0,92,0.00,,,0.00,Wunderground PWS Mod,2013-10-03 05:32:00,
2013-10-03 01:38:00,60.7,57.7,29.98,North,355,0.0,0.0,90,0.00,,,0.00,Wunderground PWS Mod,2013-10-03 05:38:00,
2013-10-03 01:43:00,60.5,57.2,29.98,North,355,0.0,0.0,89,0.00,,,0.00,Wunderground PWS Mod,2013-10-03 05:43:00,
2013-10-03 01:48:00,60.4,57.1,29.98,North,355,0.0,0.0,89,0.00,,,0.00,Wunderground PWS Mod,2013-10-03 05:48:00,
2013-10-03 01:54:00,60.4,56.8,29.98,North,355,0.0,0.0,88,0.00,,,0.00,Wunderground PWS Mod,2013-10-03 05:54:00,
2013-10-03 02:00:00,60.3,57.0,29.98,North,355,0.0,0.0,89,0.00,,,0.00,Wunderground PWS Mod,2013-10-03 06:00:00,
2013-10-03 02:05:00,60.1,56.8,29.98,North,355,0.0,0.0,89,0.00,,,0.00,Wunderground PWS Mod,2013-10-03 06:05:00,
2013-10-03 02:11:00,59.9,56.3,29.98,North,355,0.0,0.0,88,0.00,,,0.00,Wunderground PWS Mod,2013-10-03 06:11:00,
2013-10-03 02:16:00,59.9,56.0,29.98,North,355,0.0,0.0,87,0.00,,,0.00,Wunderground PWS Mod,2013-10-03 06:16:00,
2013-10-03 02:22:00,59.9,56.3,29.98,North,355,0.0,0.0,88,0.00,,,0.00,Wunderground PWS Mod,2013-10-03 06:22:00,
2013-10-03 02:27:00,59.8,56.2,29.98,North,355,0.0,0.0,88,0.00,,,0.00,Wunderground PWS Mod,2013-10-03 06:27:00,
2013-10-03 02:32:00,59.6,55.7,29.98,NE,38,0.0,0.0,87,0.00,,,0.00,Wunderground PWS Mod,2013-10-03 06:32:00,
2013-10-03 02:37:00,59.5,55.3,29.98,NE,38,0.0,0.0,86,0.00,,,0.00,Wunderground PWS Mod,2013-10-03 06:37:00,
2013-10-03 02:42:00,59.5,55.3,29.98,NE,38,0.0,0.0,86,0.00,,,0.00,Wunderground PWS Mod,2013-10-03 06:42:00,
2013-10-03 02:47:00,59.4,55.5,29.98,NE,38,0.0,0.0,87,0.00,,,0.00,Wunderground PWS Mod,2013-10-03 06:47:00,
2013-10-03 02:53:00,59.3,54.8,29.98,NE,38,0.0,0.0,85,0.00,,,0.00,Wunderground PWS Mod,2013-10-03 06:53:00,
2013-10-03 02:58:00,59.2,54.7,29.98,NNE,24,0.0,0.0,85,0.00,,,0.00,Wunderground PWS Mod,2013-10-03 06:58:00,
2013-10-03 03:03:00,59.4,54.9,29.98,NNE,23,0.0,0.0,85,0.00,,,0.00,Wunderground PWS Mod,2013-10-03 07:03:00,
2013-10-03 03:09:00,59.5,55.0,29.98,NNE,23,0.0,0.0,85,0.00,,,0.00,Wunderground PWS Mod,2013-10-03 07:09:00,
2013-10-03 03:14:00,59.5,54.3,29.98,NNW,341,0.0,0.0,83,0.00,,,0.00,Wunderground PWS Mod,2013-10-03 07:14:00,
2013-10-03 03:20:00,59.4,54.2,29.98,NNW,341,0.0,0.0,83,0.00,,,0.00,Wunderground PWS Mod,2013-10-03 07:20:00,
2013-10-03 03:25:00,59.4,53.9,29.98,NNW,341,0.0,0.0,82,0.00,,,0.00,Wunderground PWS Mod,2013-10-03 07:25:00,
2013-10-03 03:30:00,59.3,53.5,29.99,NNW,341,0.0,0.0,81,0.00,,,0.00,Wunderground PWS Mod,2013-10-03 07:30:00,
2013-10-03 03:36:00,59.4,53.6,29.99,North,10,0.0,0.0,81,0.00,,,0.00,Wunderground PWS Mod,2013-10-03 07:36:00,
2013-10-03 03:41:00,59.4,54.9,29.99,North,10,0.0,0.0,85,0.00,,,0.00,Wunderground PWS Mod,2013-10-03 07:41:00,
2013-10-03 03:46:00,58.9,54.1,29.99,NE,34,0.0,0.0,84,0.00,,,0.00,Wunderground PWS Mod,2013-10-03 07:46:00,
2013-10-03 03:51:00,58.6,53.8,29.99,NE,34,0.0,0.0,84,0.00,,,0.00,Wunderground PWS Mod,2013-10-03 07:51:00,
2013-10-03 03:56:00,58.4,52.3,29.99,NE,35,0.0,0.0,80,0.00,,,0.00,Wunderground PWS Mod,2013-10-03 07:56:00,
2013-10-03 04:02:00,58.7,53.5,29.99,NE,35,0.0,0.0,83,0.00,,,0.00,Wunderground PWS Mod,2013-10-03 08:02:00,
2013-10-03 04:07:00,58.6,52.8,30.00,NE,35,0.0,0.0,81,0.00,,,0.00,Wunderground PWS Mod,2013-10-03 08:07:00,
2013-10-03 04:13:00,58.4,52.3,30.00,NNE,29,0.0,0.0,80,0.00,,,0.00,Wunderground PWS Mod,2013-10-03 08:13:00,
2013-10-03 04:14:00,58.7,53.2,29.99,N/A,-737280,0.0,0.0,82,0.00,,,0.00,Wunderground PWS Mod,2013-10-03 08:14:00,
2013-10-03 04:18:00,58.3,52.2,30.00,NNE,29,0.0,0.0,80,0.00,,,0.00,Wunderground PWS Mod,2013-10-03 08:18:00,
2013-10-03 04:23:00,58.1,53.0,30.00,NNE,29,0.0,0.0,83,0.00,,,0.00,Wunderground PWS Mod,2013-10-03 08:23:00,
2013-10-03 04:29:00,57.8,52.3,30.00,NNE,29,0.0,0.0,82,0.00,,,0.00,Wunderground PWS Mod,2013-10-03 08:29:00,
2013-10-03 04:34:00,57.4,52.3,30.00,NNE,29,0.0,0.0,83,0.00,,,0.00,Wunderground PWS Mod,2013-10-03 08:34:00,
2013-10-03 04:40:00,57.0,52.2,30.00,NNE,29,0.0,0.0,84,0.00,,,0.00,Wunderground PWS Mod,2013-10-03 08:40:00,
2013-10-03 04:45:00,56.8,51.4,30.00,NNE,29,0.0,0.0,82,0.00,,,0.00,Wunderground PWS Mod,2013-10-03 08:45:00,
2013-10-03 04:50:00,56.9,51.1,30.00,NNE,29,0.0,0.0,81,0.00,,,0.00,Wunderground PWS Mod,2013-10-03 08:50:00,
2013-10-03 04:55:00,57.2,52.4,30.00,NNE,29,0.0,0.0,84,0.00,,,0.00,Wunderground PWS Mod,2013-10-03 08:55:00,
2013-10-03 05:01:00,57.2,51.4,30.00,NNE,29,0.0,0.0,81,0.00,,,0.00,Wunderground PWS Mod,2013-10-03 09:01:00,
2013-10-03 05:06:00,57.3,51.5,30.00,NNE,29,0.0,0.0,81,0.00,,,0.00,Wunderground PWS Mod,2013-10-03 09:06:00,
2013-10-03 05:11:00,57.3,51.5,30.00,NNE,29,0.0,0.0,81,0.00,,,0.00,Wunderground PWS Mod,2013-10-03 09:11:00,
2013-10-03 05:16:00,57.2,51.4,30.00,NNE,29,0.0,0.0,81,0.00,,,0.00,Wunderground PWS Mod,2013-10-03 09:16:00,
2013-10-03 05:22:00,57.1,51.3,30.00,NNE,29,0.0,0.0,81,0.00,,,0.00,Wunderground PWS Mod,2013-10-03 09:22:00,
2013-10-03 05:27:00,57.0,51.2,30.00,NNE,29,0.0,0.0,81,0.00,,,0.00,Wunderground PWS Mod,2013-10-03 09:27:00,
2013-10-03 05:32:00,57.2,50.7,30.00,NNE,29,0.0,0.0,79,0.00,,,0.00,Wunderground PWS Mod,2013-10-03 09:32:00,
2013-10-03 05:37:00,57.6,50.8,30.00,North,5,0.0,0.0,78,0.00,,,0.00,Wunderground PWS Mod,2013-10-03 09:37:00,
2013-10-03 05:43:00,57.9,51.1,30.00,North,5,0.0,0.0,78,0.00,,,0.00,Wunderground PWS Mod,2013-10-03 09:43:00,
2013-10-03 05:48:00,57.8,51.0,30.00,North,5,0.0,0.0,78,0.00,,,0.00,Wunderground PWS Mod,2013-10-03 09:48:00,
2013-10-03 05:53:00,57.7,50.9,30.00,North,5,0.0,0.0,78,0.00,,,0.00,Wunderground PWS Mod,2013-10-03 09:53:00,
2013-10-03 05:58:00,57.6,50.8,30.01,North,5,0.0,0.0,78,0.00,,,0.00,Wunderground PWS Mod,2013-10-03 09:58:00,
2013-10-03 06:05:00,57.5,50.7,30.01,North,5,0.0,0.0,78,0.00,,,0.00,Wunderground PWS Mod,2013-10-03 10:05:00,
2013-10-03 06:10:00,57.4,50.6,30.01,North,5,0.0,0.0,78,0.00,,,0.00,Wunderground PWS Mod,2013-10-03 10:10:00,
2013-10-03 06:15:00,57.4,50.2,30.01,North,5,0.0,0.0,77,0.00,,,0.00,Wunderground PWS Mod,2013-10-03 10:15:00,
2013-10-03 06:21:00,57.5,50.3,30.01,North,5,0.0,0.0,77,0.00,,,0.00,Wunderground PWS Mod,2013-10-03 10:21:00,
2013-10-03 06:26:00,57.7,49.8,30.01,North,5,0.0,0.0,75,0.00,,,0.00,Wunderground PWS Mod,2013-10-03 10:26:00,
2013-10-03 06:32:00,58.1,49.9,30.01,North,5,0.0,0.0,74,0.00,,,0.00,Wunderground PWS Mod,2013-10-03 10:32:00,
2013-10-03 06:37:00,58.2,50.0,30.01,North,5,0.0,0.0,74,0.00,,,0.00,Wunderground PWS Mod,2013-10-03 10:37:00,
2013-10-03 06:42:00,58.1,49.9,30.01,North,5,0.0,0.0,74,0.00,,,0.00,Wunderground PWS Mod,2013-10-03 10:42:00,
2013-10-03 06:48:00,57.9,49.7,30.02,North,5,0.0,0.0,74,0.00,,,0.00,Wunderground PWS Mod,2013-10-03 10:48:00,
2013-10-03 06:53:00,57.7,49.8,30.02,NNE,30,0.0,0.0,75,0.00,,,0.00,Wunderground PWS Mod,2013-10-03 10:53:00,
2013-10-03 06:58:00,57.5,49.6,30.02,NNE,19,0.0,0.0,75,0.00,,,0.00,Wunderground PWS Mod,2013-10-03 10:58:00,
2013-10-03 07:03:00,57.6,49.7,30.02,NNE,19,0.0,0.0,75,0.00,,,0.00,Wunderground PWS Mod,2013-10-03 11:03:00,
2013-10-03 07:08:00,57.7,49.5,30.02,NNE,12,0.0,0.0,74,0.00,,,0.00,Wunderground PWS Mod,2013-10-03 11:08:00,
2013-10-03 07:14:00,57.9,49.3,30.02,NNE,28,0.0,0.0,73,0.00,,,0.00,Wunderground PWS Mod,2013-10-03 11:14:00,
2013-10-03 07:20:00,57.8,49.2,30.02,NNE,30,0.0,0.0,73,0.00,,,0.00,Wunderground PWS Mod,2013-10-03 11:20:00,
2013-10-03 07:25:00,57.8,49.2,30.02,NNW,348,0.0,1.0,73,0.00,,,0.00,Wunderground PWS Mod,2013-10-03 11:25:00,
2013-10-03 07:31:00,57.9,49.3,30.03,North,5,0.0,0.0,73,0.00,,,0.00,Wunderground PWS Mod,2013-10-03 11:31:00,
2013-10-03 07:36:00,57.9,49.7,30.03,North,5,0.0,0.0,74,0.00,,,0.00,Wunderground PWS Mod,2013-10-03 11:36:00,
2013-10-03 07:42:00,57.8,49.2,30.03,North,5,0.0,0.0,73,0.00,,,0.00,Wunderground PWS Mod,2013-10-03 11:42:00,
2013-10-03 07:47:00,57.9,49.3,30.03,North,5,0.0,0.0,73,0.00,,,0.00,Wunderground PWS Mod,2013-10-03 11:47:00,
2013-10-03 07:53:00,58.1,49.5,30.04,North,5,0.0,0.0,73,0.00,,,0.00,Wunderground PWS Mod,2013-10-03 11:53:00,
2013-10-03 07:58:00,58.4,49.4,30.04,North,5,0.0,0.0,72,0.00,,,0.00,Wunderground PWS Mod,2013-10-03 11:58:00,
2013-10-03 08:05:00,58.7,50.1,30.04,NNE,19,0.0,0.0,73,0.00,,,0.00,Wunderground PWS Mod,2013-10-03 12:05:00,
2013-10-03 08:10:00,58.8,50.2,30.04,NNE,19,0.0,0.0,73,0.00,,,0.00,Wunderground PWS Mod,2013-10-03 12:10:00,
2013-10-03 08:14:00,58.7,49.7,30.04,N/A,-737280,0.0,0.0,72,0.00,,,0.00,Wunderground PWS Mod,2013-10-03 12:14:00,
2013-10-03 08:15:00,58.9,50.3,30.04,NNE,20,0.0,0.0,73,0.00,,,0.00,Wunderground PWS Mod,2013-10-03 12:15:00,
2013-10-03 08:20:00,59.1,50.5,30.04,North,11,0.0,0.0,73,0.00,,,0.00,Wunderground PWS Mod,2013-10-03 12:20:00,
2013-10-03 08:26:00,59.4,50.7,30.05,North,11,0.0,0.0,73,0.00,,,0.00,Wunderground PWS Mod,2013-10-03 12:26:00,
2013-10-03 08:31:00,59.6,50.6,30.05,North,11,0.0,0.0,72,0.00,,,0.00,Wunderground PWS Mod,2013-10-03 12:31:00,
2013-10-03 08:36:00,59.9,51.2,30.05,NNE,18,0.0,0.0,73,0.00,,,0.00,Wunderground PWS Mod,2013-10-03 12:36:00,
2013-10-03 08:42:00,60.2,51.5,30.05,NNE,28,0.0,0.0,73,0.00,,,0.00,Wunderground PWS Mod,2013-10-03 12:42:00,
2013-10-03 08:47:00,60.5,51.8,30.05,NNE,28,0.0,0.0,73,0.00,,,0.00,Wunderground PWS Mod,2013-10-03 12:47:00,
2013-10-03 08:52:00,60.7,52.0,30.05,NE,38,0.0,0.0,73,0.00,,,0.00,Wunderground PWS Mod,2013-10-03 12:52:00,
2013-10-03 08:57:00,61.0,52.3,30.05,NNE,28,0.0,0.0,73,0.00,,,0.00,Wunderground PWS Mod,2013-10-03 12:57:00,
2013-10-03 09:02:00,61.3,52.2,30.05,NNE,28,0.0,0.0,72,0.00,,,0.00,Wunderground PWS Mod,2013-10-03 13:02:00,
2013-10-03 09:07:00,61.7,52.6,30.05,NNE,28,0.0,0.0,72,0.00,,,0.00,Wunderground PWS Mod,2013-10-03 13:07:00,
2013-10-03 09:13:00,62.2,52.7,30.06,NNE,28,0.0,0.0,71,0.00,,,0.00,Wunderground PWS Mod,2013-10-03 13:13:00,
2013-10-03 09:19:00,62.6,53.1,30.06,NNE,26,0.0,0.0,71,0.00,,,0.00,Wunderground PWS Mod,2013-10-03 13:19:00,
2013-10-03 09:24:00,62.7,53.5,30.06,NNE,17,0.0,0.0,72,0.00,,,0.00,Wunderground PWS Mod,2013-10-03 13:24:00,
2013-10-03 09:30:00,62.7,53.2,30.06,NNE,18,0.0,0.0,71,0.00,,,0.00,Wunderground PWS Mod,2013-10-03 13:30:00,
2013-10-03 09:35:00,63.0,53.8,30.06,North,5,0.0,0.0,72,0.00,,,0.00,Wunderground PWS Mod,2013-10-03 13:35:00,
2013-10-03 09:40:00,63.4,54.6,30.06,NNE,17,0.0,0.0,73,0.00,,,0.00,Wunderground PWS Mod,2013-10-03 13:40:00,
2013-10-03 09:46:00,63.7,54.9,30.06,NNE,17,0.0,0.0,73,0.00,,,0.00,Wunderground PWS Mod,2013-10-03 13:46:00,
2013-10-03 09:51:00,64.0,54.8,30.06,North,11,0.0,0.0,72,0.00,,,0.00,Wunderground PWS Mod,2013-10-03 13:51:00,
2013-10-03 09:56:00,64.4,53.6,30.06,NNE,19,0.0,1.0,68,0.00,,,0.00,Wunderground PWS Mod,2013-10-03 13:56:00,
2013-10-03 10:02:00,65.0,54.2,30.06,NNE,20,0.0,0.0,68,0.00,,,0.00,Wunderground PWS Mod,2013-10-03 14:02:00,
2013-10-03 10:07:00,65.3,54.5,30.06,NE,50,0.0,0.0,68,0.00,,,0.00,Wunderground PWS Mod,2013-10-03 14:07:00,
2013-10-03 10:12:00,65.7,54.8,30.06,NE,49,0.0,0.0,68,0.00,,,0.00,Wunderground PWS Mod,2013-10-03 14:12:00,
2013-10-03 10:17:00,66.2,53.2,30.06,NNE,30,0.0,2.0,63,0.00,,,0.00,Wunderground PWS Mod,2013-10-03 14:17:00,
2013-10-03 10:22:00,66.8,54.7,30.06,NNE,30,1.0,1.0,65,0.00,,,0.00,Wunderground PWS Mod,2013-10-03 14:22:00,
2013-10-03 10:28:00,67.4,54.4,30.06,NNE,28,0.0,1.0,63,0.00,,,0.00,Wunderground PWS Mod,2013-10-03 14:28:00,
2013-10-03 10:33:00,67.9,54.8,30.06,NNE,13,0.0,0.0,63,0.00,,,0.00,Wunderground PWS Mod,2013-10-03 14:33:00,
2013-10-03 10:39:00,68.2,54.2,30.06,NE,43,0.0,0.0,61,0.00,,,0.00,Wunderground PWS Mod,2013-10-03 14:39:00,
2013-10-03 10:45:00,68.5,54.1,30.06,NNE,27,0.0,0.0,60,0.00,,,0.00,Wunderground PWS Mod,2013-10-03 14:45:00,
2013-10-03 10:50:00,68.9,53.5,30.06,NNE,26,0.0,0.0,58,0.00,,,0.00,Wunderground PWS Mod,2013-10-03 14:50:00,
2013-10-03 10:55:00,69.3,54.4,30.06,North,5,0.0,0.0,59,0.00,,,0.00,Wunderground PWS Mod,2013-10-03 14:55:00,
2013-10-03 11:00:00,69.8,53.4,30.06,NE,51,0.0,0.0,56,0.00,,,0.00,Wunderground PWS Mod,2013-10-03 15:00:00,
2013-10-03 11:05:00,70.3,52.9,30.06,North,355,0.0,0.0,54,0.00,,,0.00,Wunderground PWS Mod,2013-10-03 15:05:00,
2013-10-03 11:10:00,70.6,53.1,30.05,WSW,258,0.0,0.0,54,0.00,,,0.00,Wunderground PWS Mod,2013-10-03 15:10:00,
2013-10-03 11:15:00,70.8,51.2,30.05,North,5,0.0,0.0,50,0.00,,,0.00,Wunderground PWS Mod,2013-10-03 15:15:00,
2013-10-03 11:21:00,71.2,53.2,30.05,NE,39,0.0,0.0,53,0.00,,,0.00,Wunderground PWS Mod,2013-10-03 15:21:00,
2013-10-03 11:27:00,71.7,54.2,30.05,NE,38,0.0,0.0,54,0.00,,,0.00,Wunderground PWS Mod,2013-10-03 15:27:00,
2013-10-03 11:32:00,71.9,54.9,30.05,NE,38,0.0,0.0,55,0.00,,,0.00,Wunderground PWS Mod,2013-10-03 15:32:00,
2013-10-03 11:37:00,71.7,51.5,30.05,North,10,0.0,0.0,49,0.00,,,0.00,Wunderground PWS Mod,2013-10-03 15:37:00,
2013-10-03 11:43:00,71.8,52.2,30.05,SW,217,0.0,0.0,50,0.00,,,0.00,Wunderground PWS Mod,2013-10-03 15:43:00,
2013-10-03 11:48:00,72.2,53.1,30.05,North,9,0.0,0.0,51,0.00,,,0.00,Wunderground PWS Mod,2013-10-03 15:48:00,
2013-10-03 11:53:00,72.5,53.3,30.05,NW,305,0.0,0.0,51,0.00,,,0.00,Wunderground PWS Mod,2013-10-03 15:53:00,
2013-10-03 11:58:00,72.9,53.7,30.05,WNW,300,0.0,0.0,51,0.00,,,0.00,Wunderground PWS Mod,2013-10-03 15:58:00,
2013-10-03 12:04:00,73.4,53.6,30.05,North,5,0.0,0.0,50,0.00,,,0.00,Wunderground PWS Mod,2013-10-03 16:04:00,
2013-10-03 12:10:00,73.3,52.4,30.05,NNE,20,0.0,4.0,48,0.00,,,0.00,Wunderground PWS Mod,2013-10-03 16:10:00,
2013-10-03 12:14:00,73.3,55.1,30.05,NNW,338,0.0,4.0,53,0.00,,,0.00,Wunderground PWS Mod,2013-10-03 16:14:00,
2013-10-03 12:15:00,73.2,51.8,30.05,NW,309,0.0,4.0,47,0.00,,,0.00,Wunderground PWS Mod,2013-10-03 16:15:00,
2013-10-03 12:21:00,73.3,51.3,30.04,NNW,329,0.0,4.0,46,0.00,,,0.00,Wunderground PWS Mod,2013-10-03 16:21:00,
2013-10-03 12:26:00,73.3,51.3,30.04,NE,46,0.0,4.0,46,0.00,,,0.00,Wunderground PWS Mod,2013-10-03 16:26:00,
2013-10-03 12:31:00,73.5,51.4,30.04,NW,321,0.0,4.0,46,0.00,,,0.00,Wunderground PWS Mod,2013-10-03 16:31:00,
2013-10-03 12:36:00,73.8,51.1,30.04,NE,52,0.0,4.0,45,0.00,,,0.00,Wunderground PWS Mod,2013-10-03 16:36:00,
2013-10-03 12:42:00,74.3,49.1,30.04,WNW,290,0.0,4.0,41,0.00,,,0.00,Wunderground PWS Mod,2013-10-03 16:42:00,
2013-10-03 12:47:00,74.5,48.6,30.04,NNE,15,0.0,4.0,40,0.00,,,0.00,Wunderground PWS Mod,2013-10-03 16:47:00,
2013-10-03 12:53:00,74.8,45.3,30.03,NW,314,0.0,4.0,35,0.00,,,0.00,Wunderground PWS Mod,2013-10-03 16:53:00,
2013-10-03 12:58:00,74.6,47.3,30.03,North,360,0.0,4.0,38,0.00,,,0.00,Wunderground PWS Mod,2013-10-03 16:58:00,
2013-10-03 13:03:00,74.6,46.6,30.03,NE,46,0.0,4.0,37,0.00,,,0.00,Wunderground PWS Mod,2013-10-03 17:03:00,
2013-10-03 13:08:00,74.5,45.0,30.03,NNE,16,0.0,4.0,35,0.00,,,0.00,Wunderground PWS Mod,2013-10-03 17:08:00,
2013-10-03 13:13:00,74.5,47.2,30.02,NNE,31,0.0,4.0,38,0.00,,,0.00,Wunderground PWS Mod,2013-10-03 17:13:00,
2013-10-03 13:19:00,74.3,47.0,30.02,North,11,0.0,4.0,38,0.00,,,0.00,Wunderground PWS Mod,2013-10-03 17:19:00,
2013-10-03 13:24:00,74.2,47.0,30.02,North,350,0.0,4.0,38,0.00,,,0.00,Wunderground PWS Mod,2013-10-03 17:24:00,
2013-10-03 13:30:00,74.2,47.0,30.02,North,350,0.0,4.0,38,0.00,,,0.00,Wunderground PWS Mod,2013-10-03 17:30:00,
2013-10-03 13:35:00,74.4,48.5,30.02,North,355,0.0,4.0,40,0.00,,,0.00,Wunderground PWS Mod,2013-10-03 17:35:00,
2013-10-03 13:40:00,74.5,47.9,30.01,NNE,21,0.0,4.0,39,0.00,,,0.00,Wunderground PWS Mod,2013-10-03 17:40:00,
2013-10-03 13:45:00,74.4,47.1,30.01,North,355,0.0,4.0,38,0.00,,,0.00,Wunderground PWS Mod,2013-10-03 17:45:00,
2013-10-03 13:51:00,74.6,50.6,30.01,North,360,0.0,4.0,43,0.00,,,0.00,Wunderground PWS Mod,2013-10-03 17:51:00,
2013-10-03 13:56:00,74.6,46.6,30.01,NNE,24,0.0,4.0,37,0.00,,,0.00,Wunderground PWS Mod,2013-10-03 17:56:00,
2013-10-03 14:01:00,74.8,49.5,30.01,ESE,113,0.0,4.0,41,0.00,,,0.00,Wunderground PWS Mod,2013-10-03 18:01:00,
2013-10-03 14:07:00,74.9,46.9,30.01,East,87,0.0,4.0,37,0.00,,,0.00,Wunderground PWS Mod,2013-10-03 18:07:00,
2013-10-03 14:12:00,74.9,49.6,30.01,NE,52,0.0,4.0,41,0.00,,,0.00,Wunderground PWS Mod,2013-10-03 18:12:00,
2013-10-03 14:17:00,74.7,48.1,30.01,North,9,0.0,4.0,39,0.00,,,0.00,Wunderground PWS Mod,2013-10-03 18:17:00,
2013-10-03 14:23:00,74.5,47.2,30.01,NE,53,0.0,4.0,38,0.00,,,0.00,Wunderground PWS Mod,2013-10-03 18:23:00,
2013-10-03 14:28:00,74.4,49.8,30.00,East,96,0.0,4.0,42,0.00,,,0.00,Wunderground PWS Mod,2013-10-03 18:28:00,
2013-10-03 14:33:00,74.5,49.2,30.00,South,186,0.0,4.0,41,0.00,,,0.00,Wunderground PWS Mod,2013-10-03 18:33:00,
2013-10-03 14:39:00,74.6,48.7,30.00,WSW,252,0.0,4.0,40,0.00,,,0.00,Wunderground PWS Mod,2013-10-03 18:39:00,
2013-10-03 14:44:00,74.6,48.0,30.00,WNW,295,0.0,4.0,39,0.00,,,0.00,Wunderground PWS Mod,2013-10-03 18:44:00,
2013-10-03 14:50:00,74.6,48.7,30.01,SSW,212,0.0,4.0,40,0.00,,,0.00,Wunderground PWS Mod,2013-10-03 18:50:00,
2013-10-03 14:55:00,74.7,48.8,30.01,SW,223,0.0,4.0,40,0.00,,,0.00,Wunderground PWS Mod,2013-10-03 18:55:00,
2013-10-03 15:00:00,74.7,48.8,30.01,SW,223,0.0,4.0,40,0.00,,,0.00,Wunderground PWS Mod,2013-10-03 19:00:00,
2013-10-03 15:06:00,74.7,51.3,30.00,ENE,63,0.0,4.0,44,0.00,,,0.00,Wunderground PWS Mod,2013-10-03 19:06:00,
2013-10-03 15:11:00,74.7,50.7,30.00,SSE,150,0.0,4.0,43,0.00,,,0.00,Wunderground PWS Mod,2013-10-03 19:11:00,
2013-10-03 15:16:00,74.8,52.0,30.00,SSE,150,0.0,4.0,45,0.00,,,0.00,Wunderground PWS Mod,2013-10-03 19:16:00,
2013-10-03 15:21:00,74.7,50.1,30.00,WSW,255,0.0,4.0,42,0.00,,,0.00,Wunderground PWS Mod,2013-10-03 19:21:00,
2013-10-03 15:26:00,74.7,50.1,29.99,WSW,255,0.0,4.0,42,0.00,,,0.00,Wunderground PWS Mod,2013-10-03 19:26:00,
2013-10-03 15:32:00,74.7,53.7,30.00,SSE,161,0.0,4.0,48,0.00,,,0.00,Wunderground PWS Mod,2013-10-03 19:32:00,
2013-10-03 15:38:00,74.1,54.8,30.00,SSW,196,0.0,4.0,51,0.00,,,0.00,Wunderground PWS Mod,2013-10-03 19:38:00,
2013-10-03 15:43:00,73.8,55.6,30.00,South,175,0.0,4.0,53,0.00,,,0.00,Wunderground PWS Mod,2013-10-03 19:43:00,
2013-10-03 15:48:00,73.6,56.4,30.00,SSW,204,0.0,4.0,55,0.00,,,0.00,Wunderground PWS Mod,2013-10-03 19:48:00,
2013-10-03 15:54:00,73.4,56.2,30.00,SW,236,0.0,4.0,55,0.00,,,0.00,Wunderground PWS Mod,2013-10-03 19:54:00,
2013-10-03 16:00:00,73.0,54.9,30.00,SSE,159,0.0,4.0,53,0.00,,,0.00,Wunderground PWS Mod,2013-10-03 20:00:00,
2013-10-03 16:05:00,72.6,54.5,30.00,SSW,192,0.0,2.0,53,0.00,,,0.00,Wunderground PWS Mod,2013-10-03 20:05:00,
2013-10-03 16:11:00,72.3,53.7,30.00,SSW,211,0.0,2.0,52,0.00,,,0.00,Wunderground PWS Mod,2013-10-03 20:11:00,
2013-10-03 16:14:00,72.8,54.1,30.00,SE,135,0.0,2.0,52,0.00,,,0.00,Wunderground PWS Mod,2013-10-03 20:14:00,
2013-10-03 16:16:00,72.0,54.9,30.00,WSW,238,0.0,2.0,55,0.00,,,0.00,Wunderground PWS Mod,2013-10-03 20:16:00,
2013-10-03 16:21:00,71.8,54.8,30.00,WSW,238,0.0,2.0,55,0.00,,,0.00,Wunderground PWS Mod,2013-10-03 20:21:00,
2013-10-03 16:26:00,71.7,55.7,30.00,WSW,238,0.0,2.0,57,0.00,,,0.00,Wunderground PWS Mod,2013-10-03 20:26:00,
2013-10-03 16:31:00,71.5,56.9,30.00,WSW,238,0.0,2.0,60,0.00,,,0.00,Wunderground PWS Mod,2013-10-03 20:31:00,
2013-10-03 16:36:00,71.3,57.2,29.99,SSE,163,0.0,2.0,61,0.00,,,0.00,Wunderground PWS Mod,2013-10-03 20:36:00,
2013-10-03 16:42:00,71.0,57.3,30.00,WSW,252,0.0,2.0,62,0.00,,,0.00,Wunderground PWS Mod,2013-10-03 20:42:00,
2013-10-03 16:47:00,70.9,57.7,29.99,WSW,252,0.0,2.0,63,0.00,,,0.00,Wunderground PWS Mod,2013-10-03 20:47:00,
2013-10-03 16:52:00,70.7,57.9,30.00,SW,225,0.0,2.0,64,0.00,,,0.00,Wunderground PWS Mod,2013-10-03 20:52:00,
2013-10-03 16:57:00,70.4,55.8,30.00,SW,226,0.0,2.0,60,0.00,,,0.00,Wunderground PWS Mod,2013-10-03 20:57:00,
2013-10-03 17:03:00,70.2,56.1,30.00,SSW,202,0.0,2.0,61,0.00,,,0.00,Wunderground PWS Mod,2013-10-03 21:03:00,
2013-10-03 17:08:00,70.0,55.9,30.00,SSW,204,0.0,2.0,61,0.00,,,0.00,Wunderground PWS Mod,2013-10-03 21:08:00,
2013-10-03 17:13:00,69.8,56.2,30.00,SSW,204,0.0,2.0,62,0.00,,,0.00,Wunderground PWS Mod,2013-10-03 21:13:00,
2013-10-03 17:19:00,69.5,56.3,30.00,SSW,202,0.0,2.0,63,0.00,,,0.00,Wunderground PWS Mod,2013-10-03 21:19:00,
2013-10-03 17:24:00,69.3,56.6,30.00,SSW,202,0.0,2.0,64,0.00,,,0.00,Wunderground PWS Mod,2013-10-03 21:24:00,
2013-10-03 17:30:00,69.0,56.7,30.00,SW,221,0.0,2.0,65,0.00,,,0.00,Wunderground PWS Mod,2013-10-03 21:30:00,
2013-10-03 17:35:00,68.8,57.0,30.00,SW,232,0.0,2.0,66,0.00,,,0.00,Wunderground PWS Mod,2013-10-03 21:35:00,
2013-10-03 17:41:00,68.6,57.2,30.00,WSW,242,0.0,2.0,67,0.00,,,0.00,Wunderground PWS Mod,2013-10-03 21:41:00,
2013-10-03 17:47:00,68.2,56.8,30.00,WSW,250,0.0,2.0,67,0.00,,,0.00,Wunderground PWS Mod,2013-10-03 21:47:00,
2013-10-03 17:52:00,67.9,56.5,30.00,WSW,254,0.0,2.0,67,0.00,,,0.00,Wunderground PWS Mod,2013-10-03 21:52:00,
2013-10-03 17:57:00,67.6,56.7,30.00,WSW,257,0.0,2.0,68,0.00,,,0.00,Wunderground PWS Mod,2013-10-03 21:57:00,
2013-10-03 18:02:00,67.4,56.9,30.00,WSW,257,0.0,2.0,69,0.00,,,0.00,Wunderground PWS Mod,2013-10-03 22:02:00,
2013-10-03 18:07:00,67.2,56.7,30.00,WSW,257,0.0,2.0,69,0.00,,,0.00,Wunderground PWS Mod,2013-10-03 22:07:00,
2013-10-03 18:13:00,66.9,56.4,30.00,WSW,258,0.0,2.0,69,0.00,,,0.00,Wunderground PWS Mod,2013-10-03 22:13:00,
2013-10-03 18:18:00,66.7,56.6,30.00,WSW,258,0.0,2.0,70,0.00,,,0.00,Wunderground PWS Mod,2013-10-03 22:18:00,
2013-10-03 18:23:00,66.5,56.4,30.00,WSW,258,0.0,2.0,70,0.00,,,0.00,Wunderground PWS Mod,2013-10-03 22:23:00,
2013-10-03 18:29:00,66.2,56.5,30.00,WSW,258,0.0,2.0,71,0.00,,,0.00,Wunderground PWS Mod,2013-10-03 22:29:00,
2013-10-03 18:34:00,65.9,56.2,30.00,WSW,258,0.0,2.0,71,0.00,,,0.00,Wunderground PWS Mod,2013-10-03 22:34:00,
2013-10-03 18:40:00,65.8,56.5,30.01,WSW,258,0.0,2.0,72,0.00,,,0.00,Wunderground PWS Mod,2013-10-03 22:40:00,
2013-10-03 18:45:00,65.7,56.4,30.01,WSW,258,0.0,2.0,72,0.00,,,0.00,Wunderground PWS Mod,2013-10-03 22:45:00,
2013-10-03 18:50:00,65.5,56.2,30.01,WSW,258,0.0,2.0,72,0.00,,,0.00,Wunderground PWS Mod,2013-10-03 22:50:00,
2013-10-03 18:56:00,65.4,56.1,30.01,WSW,245,0.0,2.0,72,0.00,,,0.00,Wunderground PWS Mod,2013-10-03 22:56:00,
2013-10-03 19:01:00,65.2,56.3,30.01,WSW,245,0.0,2.0,73,0.00,,,0.00,Wunderground PWS Mod,2013-10-03 23:01:00,
2013-10-03 19:06:00,65.1,56.2,30.01,WSW,245,0.0,2.0,73,0.00,,,0.00,Wunderground PWS Mod,2013-10-03 23:06:00,
2013-10-03 19:12:00,64.9,56.0,30.01,WSW,245,0.0,2.0,73,0.00,,,0.00,Wunderground PWS Mod,2013-10-03 23:12:00,
2013-10-03 19:17:00,64.7,56.2,30.01,WSW,246,0.0,2.0,74,0.00,,,0.00,Wunderground PWS Mod,2013-10-03 23:17:00,
2013-10-03 19:22:00,64.6,56.1,30.01,WSW,246,0.0,2.0,74,0.00,,,0.00,Wunderground PWS Mod,2013-10-03 23:22:00,
2013-10-03 19:27:00,64.5,56.4,30.01,WSW,246,0.0,2.0,75,0.00,,,0.00,Wunderground PWS Mod,2013-10-03 23:27:00,
2013-10-03 19:33:00,64.3,56.2,30.01,WSW,246,0.0,2.0,75,0.00,,,0.00,Wunderground PWS Mod,2013-10-03 23:33:00,
2013-10-03 19:39:00,64.2,56.1,30.01,WSW,248,0.0,2.0,75,0.00,,,0.00,Wunderground PWS Mod,2013-10-03 23:39:00,
2013-10-03 19:44:00,64.1,56.0,30.01,WSW,248,0.0,2.0,75,0.00,,,0.00,Wunderground PWS Mod,2013-10-03 23:44:00,
2013-10-03 19:50:00,64.0,56.3,30.01,WSW,250,0.0,2.0,76,0.00,,,0.00,Wunderground PWS Mod,2013-10-03 23:50:00,
2013-10-03 19:55:00,64.0,56.3,30.01,WSW,256,0.0,2.0,76,0.00,,,0.00,Wunderground PWS Mod,2013-10-03 23:55:00,
2013-10-03 20:01:00,64.0,56.3,30.02,WSW,256,0.0,2.0,76,0.00,,,0.00,Wunderground PWS Mod,2013-10-04 00:01:00,
2013-10-03 20:06:00,64.0,56.3,30.02,West,261,0.0,0.0,76,0.00,,,0.00,Wunderground PWS Mod,2013-10-04 00:06:00,
2013-10-03 20:12:00,64.0,56.3,30.02,West,261,0.0,0.0,76,0.00,,,0.00,Wunderground PWS Mod,2013-10-04 00:12:00,
2013-10-03 20:17:00,64.0,55.9,30.02,West,261,0.0,0.0,75,0.00,,,0.00,Wunderground PWS Mod,2013-10-04 00:17:00,
2013-10-03 20:22:00,64.0,56.3,30.02,West,261,0.0,0.0,76,0.00,,,0.00,Wunderground PWS Mod,2013-10-04 00:22:00,
2013-10-03 20:28:00,63.9,56.2,30.02,West,269,0.0,0.0,76,0.00,,,0.00,Wunderground PWS Mod,2013-10-04 00:28:00,
2013-10-03 20:34:00,63.7,56.0,30.02,West,269,0.0,0.0,76,0.00,,,0.00,Wunderground PWS Mod,2013-10-04 00:34:00,
2013-10-03 20:40:00,63.5,56.2,30.02,West,269,0.0,0.0,77,0.00,,,0.00,Wunderground PWS Mod,2013-10-04 00:40:00,
2013-10-03 20:45:00,63.3,56.3,30.02,West,269,0.0,0.0,78,0.00,,,0.00,Wunderground PWS Mod,2013-10-04 00:45:00,
2013-10-03 20:50:00,63.2,56.2,30.02,West,269,0.0,0.0,78,0.00,,,0.00,Wunderground PWS Mod,2013-10-04 00:50:00,
2013-10-03 20:55:00,63.1,56.1,30.02,West,269,0.0,0.0,78,0.00,,,0.00,Wunderground PWS Mod,2013-10-04 00:55:00,
2013-10-03 21:00:00,63.0,56.4,30.02,West,269,0.0,0.0,79,0.00,,,0.00,Wunderground PWS Mod,2013-10-04 01:00:00,
2013-10-03 21:05:00,63.0,56.0,30.03,West,269,0.0,0.0,78,0.00,,,0.00,Wunderground PWS Mod,2013-10-04 01:05:00,
2013-10-03 21:11:00,63.0,56.0,30.03,West,269,0.0,0.0,78,0.00,,,0.00,Wunderground PWS Mod,2013-10-04 01:11:00,
2013-10-03 21:16:00,63.0,56.0,30.03,West,269,0.0,0.0,78,0.00,,,0.00,Wunderground PWS Mod,2013-10-04 01:16:00,
2013-10-03 21:21:00,63.0,56.0,30.03,West,269,0.0,0.0,78,0.00,,,0.00,Wunderground PWS Mod,2013-10-04 01:21:00,
2013-10-03 21:27:00,63.0,56.0,30.03,West,269,0.0,0.0,78,0.00,,,0.00,Wunderground PWS Mod,2013-10-04 01:27:00,
2013-10-03 21:32:00,63.0,56.0,30.03,West,269,0.0,0.0,78,0.00,,,0.00,Wunderground PWS Mod,2013-10-04 01:32:00,
2013-10-03 21:37:00,63.0,56.0,30.03,West,269,0.0,0.0,78,0.00,,,0.00,Wunderground PWS Mod,2013-10-04 01:37:00,
2013-10-03 21:43:00,63.0,56.0,30.03,West,269,0.0,0.0,78,0.00,,,0.00,Wunderground PWS Mod,2013-10-04 01:43:00,
2013-10-03 21:49:00,62.9,56.3,30.03,West,269,0.0,0.0,79,0.00,,,0.00,Wunderground PWS Mod,2013-10-04 01:49:00,
2013-10-03 21:54:00,62.7,56.1,30.04,West,269,0.0,0.0,79,0.00,,,0.00,Wunderground PWS Mod,2013-10-04 01:54:00,
2013-10-03 22:00:00,62.5,55.9,30.04,West,269,0.0,0.0,79,0.00,,,0.00,Wunderground PWS Mod,2013-10-04 02:00:00,
2013-10-03 22:06:00,62.4,56.1,30.04,West,269,0.0,0.0,80,0.00,,,0.00,Wunderground PWS Mod,2013-10-04 02:06:00,
2013-10-03 22:12:00,62.2,56.3,30.04,West,269,0.0,0.0,81,0.00,,,0.00,Wunderground PWS Mod,2013-10-04 02:12:00,
2013-10-03 22:18:00,62.0,56.1,30.04,West,269,0.0,0.0,81,0.00,,,0.00,Wunderground PWS Mod,2013-10-04 02:18:00,
2013-10-03 22:23:00,61.9,56.3,30.04,West,269,0.0,0.0,82,0.00,,,0.00,Wunderground PWS Mod,2013-10-04 02:23:00,
2013-10-03 22:28:00,61.9,56.7,30.04,West,269,0.0,0.0,83,0.00,,,0.00,Wunderground PWS Mod,2013-10-04 02:28:00,
2013-10-03 22:33:00,62.0,56.8,30.04,West,269,0.0,0.0,83,0.00,,,0.00,Wunderground PWS Mod,2013-10-04 02:33:00,
2013-10-03 22:38:00,62.0,56.8,30.04,West,269,0.0,0.0,83,0.00,,,0.00,Wunderground PWS Mod,2013-10-04 02:38:00,
2013-10-03 22:44:00,62.0,56.8,30.04,West,269,0.0,0.0,83,0.00,,,0.00,Wunderground PWS Mod,2013-10-04 02:44:00,
2013-10-03 22:50:00,62.1,57.2,30.04,West,269,0.0,0.0,84,0.00,,,0.00,Wunderground PWS Mod,2013-10-04 02:50:00,
2013-10-03 22:55:00,62.1,57.2,30.04,West,269,0.0,0.0,84,0.00,,,0.00,Wunderground PWS Mod,2013-10-04 02:55:00,
2013-10-03 23:01:00,62.1,57.2,30.04,West,269,0.0,0.0,84,0.00,,,0.00,Wunderground PWS Mod,2013-10-04 03:01:00,
2013-10-03 23:06:00,62.1,57.2,30.04,West,269,0.0,0.0,84,0.00,,,0.00,Wunderground PWS Mod,2013-10-04 03:06:00,
2013-10-03 23:12:00,62.0,57.1,30.04,West,269,0.0,0.0,84,0.00,,,0.00,Wunderground PWS Mod,2013-10-04 03:12:00,
2013-10-03 23:18:00,61.9,57.0,30.04,West,269,0.0,0.0,84,0.00,,,0.00,Wunderground PWS Mod,2013-10-04 03:18:00,
2013-10-03 23:23:00,61.8,57.2,30.04,West,269,0.0,0.0,85,0.00,,,0.00,Wunderground PWS Mod,2013-10-04 03:23:00,
2013-10-03 23:28:00,61.7,57.1,30.04,West,269,0.0,0.0,85,0.00,,,0.00,Wunderground PWS Mod,2013-10-04 03:28:00,
2013-10-03 23:33:00,61.6,57.0,30.04,West,269,0.0,0.0,85,0.00,,,0.00,Wunderground PWS Mod,2013-10-04 03:33:00,
2013-10-03 23:39:00,61.5,56.9,30.04,West,269,0.0,0.0,85,0.00,,,0.00,Wunderground PWS Mod,2013-10-04 03:39:00,
2013-10-03 23:44:00,61.4,56.8,30.04,West,269,0.0,0.0,85,0.00,,,0.00,Wunderground PWS Mod,2013-10-04 03:44:00,
2013-10-03 23:50:00,61.3,57.1,30.04,West,269,0.0,0.0,86,0.00,,,0.00,Wunderground PWS Mod,2013-10-04 03:50:00,
2013-10-03 23:56:00,61.1,56.9,30.04,West,269,0.0,0.0,86,0.00,,,0.00,Wunderground PWS Mod,2013-10-04 03:56:00,